Flag for Canada Weather past 2 weeks in Resolute Bay, Nunavut, Canada

Now
12 °F

Partly cloudy.


Feels Like: -5 °F
Forecast: 4 / 12 °F
Wind: 18 mph from Southeast

Location: Resolute

Current Time: Apr 25, 2015 at 4:05:44 AM

Latest Report: Apr 25, 2015 at 3:00 AM


Visibility: 15 mi

Pressure: 30.75 "Hg

Humidity: 79%

Dew point: 7 °F

Location of Resolute BayLocation

Historic Weather in Resolute Bay — Graph

°F

Resolute Bay temperature yesterday

Maximum temperature yesterday: 14 °F (at 2:00 PM)
Minimum temperature yesterday: 5 °F (at 2:00 AM)
Average temperature yesterday: 10 °F

Past Weeks' High & Low Weather Summary

 TemperatureHumidityPressure
High14 °F (Apr 24, 2:00 PM)92% (Apr 16, 11:00 PM)30.96 "Hg (Apr 16, 11:00 PM)
Low-29 °F (Apr 13, 12:00 AM)56% (Apr 24, 11:00 AM)29.33 "Hg (Apr 17, 7:00 AM)
Average-6 °F77%29.95 "Hg
* Reported Apr 10 2:00 AM — Apr 25 2:00 AM, Resolute Bay, Weather by CustomWeather, © 2015

Note: Actual official high and low records may vary slightly from our data, if they occured in-between our weather recording intervals... More about our weather records

Advertising

Resolute Bay weather history for previous 24 hours

 ConditionsComfort  
Time TempWeatherWind HumidityBarometerVisibility
2:00 AM
Sat, Apr 25
10 °FPartly cloudy.15 mph85%30.75 "Hg15 mi
1:00 AM12 °FPassing clouds.20 mph79%30.75 "Hg15 mi
12:00 AM10 °FBroken clouds.18 mph79%30.76 "Hg15 mi
11:00 PM
Fri, Apr 24
10 °FPartly sunny.17 mph79%30.77 "Hg15 mi
10:00 PM10 °FBroken clouds.18 mph79%30.78 "Hg15 mi
9:00 PM10 °FPartly sunny.18 mph79%30.78 "Hg15 mi
8:00 PM12 °FHigh level clouds.20 mph79%30.78 "Hg15 mi
6:00 PM10 °FPartly sunny.17 mph72%30.81 "Hg15 mi
5:00 PM12 °FPartly sunny.18 mph67%30.81 "Hg15 mi
4:00 PM14 °FHigh level clouds.14 mph67%30.83 "Hg15 mi
3:00 PM12 °FHigh level clouds.14 mph73%30.83 "Hg15 mi
2:00 PM14 °FHigh level clouds.16 mph67%30.84 "Hg15 mi
1:00 PM12 °FPartly sunny.13 mph62%30.84 "Hg15 mi
12:00 PM12 °FPartly sunny.15 mph62%30.85 "Hg15 mi
11:00 AM10 °FPassing clouds.15 mph56%30.86 "Hg15 mi
10:00 AM9 °FPassing clouds.18 mph66%30.86 "Hg15 mi
9:00 AM9 °FSunny.20 mph66%30.87 "Hg15 mi
8:00 AM9 °FSunny.21 mph72%30.87 "Hg15 mi
7:00 AM9 °FSunny.16 mph72%30.89 "Hg15 mi
6:00 AM9 °FLow level haze.17 mph72%30.89 "Hg15 mi
5:00 AM7 °FSunny.17 mph78%30.89 "Hg15 mi
4:00 AM7 °FPassing clouds.16 mph78%30.90 "Hg15 mi
Weather by CustomWeather, © 2015

See weather overviewHow to use our weather pages